Regional Weather Roundup
Issued by NWS

Home | Current Version | Previous Version | Graphics & Text | Print | Product List | Glossary On
Versions: 1 2 3 4 5 6 7 8 9 10 11 12 13 14 15 16 17 18 19 20 21 22 23 24 25 26 27 28 29 30 31 32 33 34 35 36 37 38 39 40 41 42 43 44 45 46 47 48 49 50
000
ASUS43 KDMX 280707
RWRIA

WEATHER ROUNDUP FOR IOWA
NATIONAL WEATHER SERVICE DES MOINES IA
200 AM CDT THU AUG 28 2014

NOTE: "FAIR" INDICATES FEW OR NO CLOUDS BELOW 12,000 FEET WITH NO
SIGNIFICANT WEATHER AND/OR OBSTRUCTIONS TO VISIBILITY.

* - THESE STATIONS ARE NOT NWS STATIONS...THUS NOT UNDER NWS
QUALITY CONTROL.  THEY ALSO DO NOT REPORT WEATHER SUCH
AS PRECIPITATION OR FOG.

IAZ001>003-012>014-020>022-031>034-043>046-280800-
   NORTHWEST IOWA

CITY           SKY/WX    TMP DP  RH WIND       PRES   REMARKS
CARROLL *      CLOUDY    68  68 100 CALM      30.07F
DENISON *      RAIN      68  68 100 SE7       30.04F
LE MARS *        N/A     70  68  94 SE5       30.05F
ORANGE CITY *  MOCLDY    70  66  88 SE6       30.06F
SHELDON *      CLOUDY    66  64  94 E6        30.06S
SIOUX CITY     LGT RAIN  69  67  93 SE7       30.03F
SPENCER        CLOUDY    67  63  87 E7        30.09S
STORM LAKE *   CLOUDY    66  66 100 SE8       30.07F
$$

IAZ055>058-069>071-079>083-090>094-280800-
   SOUTHWEST IOWA

CITY           SKY/WX    TMP DP  RH WIND       PRES   REMARKS
ATLANTIC *     CLOUDY    70  68  94 NE7       30.04F
AUDUBON *      RAIN      70  68  94 CALM      30.08F
CLARINDA *     CLOUDY    72  72 100 E6        30.04F
COUNCIL BLFS * LGT RAIN  70  70 100 E10       30.02F
CRESTON *      CLOUDY    70  70 100 E8        30.05F FOG
HARLAN  *      LGT RAIN  68  68 100 E5        30.08F
LAMONI         CLOUDY    71  69  93 E5        30.04F
RED OAK *      CLOUDY    72  70  94 NE7       30.03F
SHENANDOAH *   MOCLDY    72  70  94 E8G15     30.01F
$$

IAZ047>049-059>061-072>074-084-280800-
   CENTRAL IOWA

CITY           SKY/WX    TMP DP  RH WIND       PRES   REMARKS
AMES           CLOUDY    67  65  93 CALM      30.08F
ANKENY *       PTCLDY    68  66  94 CALM      30.07F
CHARITON *       N/A     70  70 100 E6        30.06F
DES MOINES     MOCLDY    71  67  87 E5        30.07F
GRINNELL*      CLOUDY    66  64  94 E6        30.09F
KNOXVILLE *    MOCLDY    68  66  94 E6        30.06F
MARSHALLTOWN   CLOUDY    66  63  90 E6        30.09F
PELLA *        CLOUDY    68  64  88 CALM      30.09F
PERRY *        CLOUDY    68  68 100 E6        30.06F
$$

IAZ004>006-015-016-023>025-035-036-280800-
   NORTH CENTRAL IOWA

CITY           SKY/WX    TMP DP  RH WIND       PRES   REMARKS
ALGONA *       MOCLDY    66  63  88 SE6       30.09F
CLARION *      CLOUDY    64  63  94 E6        30.09F
ESTHERVILLE    MOCLDY    63  60  90 E7        30.09F
FORT DODGE *   CLOUDY    66  63  88 SE5       30.09F
MASON CITY     MOCLDY    63  61  93 E6        30.12F
FOREST CITY *  PTCLDY    63  63 100 E5        30.11F
IOWA FALLS *   CLOUDY    66  61  82 CALM      30.11F
$$

IAZ007>011-017>019-026>030-037>042-050>054-066-280800-
   NORTHEAST IOWA

CITY           SKY/WX    TMP DP  RH WIND       PRES   REMARKS
CEDAR RAPIDS   CLOUDY    66  62  87 E7        30.09F
CHARLES CITY * MOCLDY    63  59  88 E7        30.13F
CLINTON *      CLEAR     63  61  94 E7        30.14S
DECORAH *      CLEAR     59  59 100 CALM      30.13F
DUBUQUE        CLEAR     63  61  93 CALM      30.14S
MONTICELLO *   MOCLDY    63  63 100 CALM      30.11F
OELWEIN *      CLOUDY    63  61  94 NE5       30.13F
WATERLOO       CLOUDY    64  61  90 E5        30.10F
$$

IAZ064-065-067-068-078-280800-
   EAST CENTRAL IOWA

CITY           SKY/WX    TMP DP  RH WIND       PRES   REMARKS
DAVENPORT      CLEAR     64  61  90 NE7       30.12S
IOWA CITY      CLOUDY    70  62  76 E6        30.09F
MT. PLEASANT * MOCLDY    68  66  94 NE3       30.08F
MUSCATINE *    PTCLDY    68  64  88 CALM      30.09F
QUAD CITIES    PTCLDY    67  62  84 E5        30.10F
$$

IAZ062-063-075>077-085>089-095>099-280800-
   SOUTHEAST IOWA

CITY           SKY/WX    TMP DP  RH WIND       PRES   REMARKS
BURLINGTON     LGT RAIN  70  65  84 NE7       30.07F
FAIRFIELD *    CLOUDY    68  64  88 E6        30.08F
FORT MADISON * PTCLDY    70  66  88 NE3       30.08F
KEOKUK *       CLOUDY    72  68  88 NE5       30.06F
OSKALOOSA *      N/A     68  66  94 E5        30.07F
CENTERVILLE *  CLEAR     68  68 100 E6        30.07F
OTTUMWA        CLOUDY    69  66  90 E6        30.06F
WASHINGTON *   CLEAR     68  66  94 NE6       30.08F
$$

ABBREVIATIONS USED IN REMARKS
   TC - TEMPERATURES IN CELSIUS
  WCI - WIND CHILL INDEX
   HX - HEAT INDEX
  VSB - VISIBILITY
$$




USA.gov is the U.S. government's official web portal to all federal, state and local government web resources and services.